This is the latest recevied weather packets stored in our database for station/object OK1FET-4. If no packets are shown the sender has not sent any weather packets the latest 1 day(s).
| Time | Temp. | Humidity | Pressure | Rain* | Wind** | Luminosity | Snow |
|---|---|---|---|---|---|---|---|
| 1836274818 | 11.67° C | 89% | 1021.8 hPa | - | 0.89 m/s, 141° | - | - |
| 1836274818 | 11.67° C | 89% | 1021.8 hPa | - | 0.89 m/s, 141° | - | - |
| 1836274818 | 11.67° C | 89% | 1021.8 hPa | - | 0.89 m/s, 141° | - | - |
| 1836274549 | 11.67° C | 89% | 1021.8 hPa | - | 1.34 m/s, 135° | - | - |
| 1836274548 | 11.67° C | 89% | 1021.8 hPa | - | 1.34 m/s, 135° | - | - |
| 1836274337 | 11.67° C | 89% | 1021.7 hPa | - | 1.34 m/s, 156° | - | - |
| 1836274337 | 11.67° C | 89% | 1021.7 hPa | - | 1.34 m/s, 156° | - | - |
| 1836274337 | 11.67° C | 89% | 1021.7 hPa | - | 1.34 m/s, 156° | - | - |
| 1836274279 | 11.67° C | 89% | 1021.9 hPa | - | 1.34 m/s, 138° | - | - |
| 1836274279 | 11.67° C | 89% | 1021.9 hPa | - | 1.34 m/s, 138° | - | - |
| 1836274279 | 11.67° C | 89% | 1021.9 hPa | - | 1.34 m/s, 138° | - | - |
| 1836274010 | 11.67° C | 87% | 1022 hPa | - | 0.89 m/s, 148° | - | - |
| 1836274010 | 11.67° C | 87% | 1022 hPa | - | 0.89 m/s, 148° | - | - |
| 1836274010 | 11.67° C | 87% | 1022 hPa | - | 0.89 m/s, 148° | - | - |
| 1778033837 | 11.11° C | 97% | 1007.3 hPa | - | 2.24 m/s, 260° | - | - |
| 1778033837 | 11.11° C | 97% | 1007.3 hPa | - | 2.24 m/s, 260° | - | - |
| 1778033537 | 11.11° C | 97% | 1007.3 hPa | - | 2.24 m/s, 249° | - | - |
| 1778033537 | 11.11° C | 97% | 1007.3 hPa | - | 2.24 m/s, 249° | - | - |
| 1778033537 | 11.11° C | 97% | 1007.3 hPa | - | 2.24 m/s, 249° | - | - |
| 1778033237 | 11.11° C | 97% | 1007.4 hPa | - | 2.24 m/s, 271° | - | - |
| 1778033237 | 11.11° C | 97% | 1007.4 hPa | - | 2.24 m/s, 271° | - | - |
| 1778033237 | 11.11° C | 97% | 1007.4 hPa | - | 2.24 m/s, 271° | - | - |
| 1778032937 | 11.11° C | 97% | 1007.2 hPa | - | 1.34 m/s, 256° | - | - |
| 1778032937 | 11.11° C | 97% | 1007.2 hPa | - | 1.34 m/s, 256° | - | - |
| 1778032937 | 11.11° C | 97% | 1007.2 hPa | - | 1.34 m/s, 256° | - | - |
* Rain since midnight (hover to see other rain measurements)
** Current wind speed in m/s (hover to see current wind gust speed)